Regional Weather Roundup
Issued by NWS Lake Charles, LA

Home | Current Version | Previous Version | Text Only | Print | Product List | Glossary On
Versions: 1 2 3 4 5 6 7 8 9 10 11 12 13 14 15 16 17 18 19 20 21 22 23 24 25 26 27
000
ASUS44 KLCH 192010
RWRLCH
REGIONAL WEATHER ROUNDUP
NATIONAL WEATHER SERVICE LAKE CHARLES LA
300 PM CDT THU OCT 19 2017

Note: "fair" indicates few or no clouds below 12,000 feet with no
significant weather and/or obstructions to visibility.


ACROSS SOUTHEAST TEXAS

CITY           SKY/WX    TMP DP  RH WIND       PRES   REMARKS
BEAUMONT       FAIR      82  56  40 NE12G17   30.10F
BEAUMONT CITY  FAIR      82  55  38 NE8       30.11S
ORANGE         FAIR      81  57  43 NE8       30.12F
JASPER         FAIR      80  58  47 E8        30.14F
$$

ACROSS CENTRAL LOUISIANA

CITY           SKY/WX    TMP DP  RH WIND       PRES   REMARKS
LEESVILLE      FAIR      77  55  45 E7        30.12F
FULLERTON      FAIR      79  54  41 VRB5      30.11F
ALEXANDRIA INT FAIR      80  52  37 SE7       30.12F
ESLER FIELD    FAIR      81  53  37 VRB6      30.14F
DERIDDER       FAIR      80  53  39 E6        30.14F
OAKDALE        FAIR      81  59  47 SE3       30.13F
OPELOUSAS      FAIR      81  60  48 CALM      30.13F
$$

ACROSS SOUTHWEST AND SOUTH CENTRAL LOUISIANA

CITY           SKY/WX    TMP DP  RH WIND       PRES   REMARKS
SULPHUR        FAIR      82  60  46 E6        30.11F
LAKE CHARLES   FAIR      82  60  47 SE9       30.10F
CHENNAULT INT  SUNNY     84  63  48 E10       30.11F
CAMERON PHI    NOT AVBL
DEQUINCY       FAIR      79  52  39 E5        30.12F
JENNINGS       FAIR      81  60  48 E9        30.11F
LAFAYETTE      FAIR      82  64  54 VRB5      30.12F
NEW IBERIA     FAIR      82  61  48 E6        30.12F
ABBEVILLE      FAIR      82  63  51 NE7       30.11F
PATTERSON      FAIR      82  67  60 E6        30.11F
SALT POINT       N/A     84  67  56 SE7       30.08F
$$

SELECTED SITES ACROSS THE REGION

CITY           SKY/WX    TMP DP  RH WIND       PRES   REMARKS
HOUSTON BUSH   PTSUNNY   83  64  52 VRB7      30.08F
HOUSTON HOBBY  PTSUNNY   83  64  52 SE8       30.08F
GALVESTON      FAIR      79  65  62 E16       30.09F
COLLEGE STAT   FAIR      83  59  44 CALM      30.07F
CONROE         FAIR      82  63  52 E6        30.09F
HUNTSVILLE     FAIR      84  57  39 CALM      30.09F
LUFKIN         FAIR      80  58  46 E8        30.11F
SHREVEPORT     PTSUNNY   80  57  45 E7        30.13F
MONROE         FAIR      79  56  45 VRB6      30.17F
NATCHEZ MS     FAIR      78  58  49 MISG      30.16F
BATON ROUGE    FAIR      82  61  48 NE8       30.12F
N.O. INTL ARPT PTSUNNY   82  70  66 E12       30.13F
SLIDELL        FAIR      83  60  45 NE9       30.12F
$$

MARINE REPORTS

STATION/POSITION TIME  SKY/WX   TEMP    WIND        PRES    VSBY
                                AIR SEA DIR/SP/G
                 (UTC)          (F)     (DEG/KT/KT) (MB)    (MI)
BUOY 30 S HIGH I 1950            75 80   50/ 16/ 19 1018.6F
WVE H/P(F/S)=  4/ 4

SEA RIM ST PARK  2000            76     100/ 14/ 17 1019.9F
PORT ARTHUR      1948            77 77   90/  6/  9 1019.8F
SABINE PASS N    1948            75 77  110/ 14/ 19 1020.8F
TEXAS POINT      NOT AVBL
CALCASIEU PASS   1948            78 74  150/  8/ 11 1018.3F
LK CHARLES BEACH 1948            81 78              1019.1F
MARSH ISLAND     1900            76                   N/A
FRESH WATER LOCK 1948            80 73   90/ 11/ 14 1019.3F
AMERADA PASS     1948            81 78   90/  7/ 12 1019.2F
$$




USA.gov is the U.S. government's official web portal to all federal, state and local government web resources and services.